[[{"header":{"parameterUnit":"m.s-1","parameterCategory":1,"la1":30.2992,"la2":30.254,"lo1":-89.0895,"lo2":-89.0443,"dy":0.0025,"dx":0.0025,"nx":19,"ny":19,"refTime":"2026-03-13T21:00:00:Z","depth":0,"parameterNumber":2,"parameterNumberName":"U-component_of_WINDS"},"data":[0,0,0,-0.8247,-0.8247,-0.8251,-0.8251,-0.8264,-0.8265,0,0,0,0,0,0,0,0,0,0,0,-0.825,-0.825,-0.8247,-0.8247,-0.8251,-0.8251,-0.8264,-0.8265,0,0,0,0,0,0,0,0,0,0,0,-0.825,-0.825,-0.825,-0.8247,-0.8251,-0.8251,-0.8264,-0.8258,0,0,0,0,0,0,0,0,0,0,-0.8253,-0.826,-0.825,-0.825,-0.8247,-0.8251,-0.8251,-0.8258,-0.8259,-0.8266,0,-0.8273,0,-0.8269,-0.8266,-0.8266,0,0,0,-0.8244,-0.826,-0.8257,-0.825,-0.8247,-0.8251,-0.8248,-0.8258,-0.8259,-0.8267,-0.8273,-0.8273,-0.8269,-0.8266,-0.8266,-0.8317,-0.8318,0,0,-0.8244,-0.8253,-0.8256,-0.8258,-0.8257,-0.8248,-0.8248,-0.8259,-0.8266,-0.8273,-0.8273,-0.8269,-0.8266,-0.8266,-0.8317,-0.8318,0,0,0,-0.8245,-0.8253,-0.825,-0.8257,-0.8257,-0.8248,-0.8249,-0.8266,-0.8264,-0.8274,-0.827,-0.8266,-0.8267,-0.8317,-0.8317,-0.8346,0,0,0,-0.8245,-0.8254,-0.825,-0.8256,-0.8257,-0.8261,-0.8256,-0.8263,-0.8264,-0.827,-0.8266,-0.8267,-0.8316,-0.8317,-0.8345,-0.8359,0,0,0,-0.8248,-0.8254,-0.8256,-0.8256,-0.8258,-0.8261,-0.826,-0.8263,-0.8262,-0.8266,-0.8267,-0.8316,-0.8317,-0.8343,-0.8356,-0.8376,0,0,0,-0.8255,-0.8282,-0.8257,-0.8286,-0.8258,-0.8279,-0.8259,-0.8274,-0.8281,-0.8266,-0.8316,-0.8317,-0.8343,-0.8355,-0.8374,-0.8395,-0.8404,0,0,-0.8294,-0.8287,-0.8303,-0.8281,-0.8309,-0.8277,-0.8309,-0.8307,-0.8298,-0.8312,-0.8313,-0.8345,-0.8356,-0.8376,-0.8451,-0.8458,0,0,0,-0.8319,-0.8331,-0.8336,-0.8344,-0.8342,-0.8343,-0.8334,-0.8333,-0.8344,-0.8307,-0.8357,-0.8363,-0.8374,-0.8383,-0.839,-0.8399,-0.8322,-0.8322,-0.8321,-0.839,-0.8377,-0.8404,-0.8393,-0.84,-0.8391,-0.8396,-0.8394,-0.8379,-0.8391,-0.8395,-0.8442,-0.8454,-0.8458,-0.8468,-0.8404,-0.8405,-0.8405,-0.8405,-0.8447,-0.8463,-0.8443,-0.8462,-0.8449,-0.8465,-0.8458,-0.8447,-0.846,-0.8438,-0.8447,-0.8425,-0.8467,-0.8475,-0.8407,-0.8406,-0.8406,-0.8406,-0.8406,-0.8493,-0.8498,-0.8497,-0.8507,-0.8516,-0.8503,-0.8517,-0.8505,-0.8493,-0.8502,-0.8506,-0.8505,-0.8504,-0.8505,-0.8505,-0.8505,-0.8505,-0.8505,-0.8505,-0.8541,-0.8539,-0.8552,-0.8553,-0.8556,-0.8559,-0.8551,-0.8555,-0.8555,-0.8545,-0.8545,-0.853,-0.8473,-0.8459,-0.8508,-0.8507,-0.8507,-0.8507,-0.8507,-0.8606,-0.8589,-0.861,-0.8613,-0.8614,-0.8625,-0.8608,-0.8616,-0.8617,-0.8625,-0.8608,-0.8567,-0.8559,-0.8553,-0.8542,-0.8609,-0.8609,-0.8609,-0.8609,-0.8645,-0.864,-0.8658,-0.8665,-0.867,-0.8657,-0.8682,-0.8676,-0.8667,-0.8667,-0.8655,-0.8639,-0.8634,-0.8629,-0.8622,-0.8612,-0.8695,-0.8695,-0.8695,-0.8685,-0.8679,-0.8702,-0.8693,-0.8693,-0.8694,-0.8716,-0.8725,-0.8712,-0.8698,-0.8667,-0.8664,-0.8637,-0.8629,-0.8615,-0.8605,-0.8585,0,0]},{"header":{"parameterUnit":"m.s-1","parameterCategory":1,"la1":30.2992,"la2":30.254,"lo1":-89.0895,"lo2":-89.0443,"dy":0.0025,"dx":0.0025,"nx":19,"ny":19,"refTime":"2026-03-13T21:00:00:Z","depth":0,"parameterNumber":3,"parameterNumberName":"V-component_of_WINDS"},"data":[0,0,0,2.7333,2.7334,2.7396,2.7396,2.7466,2.7466,0,0,0,0,0,0,0,0,0,0,0,2.731,2.731,2.7333,2.7334,2.7396,2.7396,2.7466,2.7466,0,0,0,0,0,0,0,0,0,0,0,2.731,2.731,2.7311,2.7334,2.7396,2.7396,2.7466,2.7422,0,0,0,0,0,0,0,0,0,0,2.7364,2.7338,2.731,2.7311,2.7335,2.7396,2.7396,2.742,2.7425,2.7434,0,2.7442,0,2.7456,2.7471,2.7471,0,0,0,2.7337,2.7334,2.7355,2.7311,2.7335,2.7396,2.7369,2.7423,2.7428,2.744,2.7444,2.7446,2.7457,2.7471,2.7471,2.7519,2.7519,0,0,2.7334,2.7318,2.7352,2.7358,2.7349,2.7367,2.7371,2.7426,2.7428,2.7444,2.7448,2.7458,2.7471,2.7472,2.7519,2.7519,0,0,0,2.7322,2.7316,2.7336,2.7355,2.7367,2.7369,2.7373,2.7426,2.7433,2.7449,2.7459,2.7472,2.7473,2.7519,2.7519,2.7507,0,0,0,2.732,2.7309,2.7334,2.7325,2.7366,2.7397,2.7371,2.743,2.7436,2.7458,2.7472,2.7473,2.7518,2.7519,2.7508,2.7504,0,0,0,2.7307,2.7307,2.7315,2.7324,2.735,2.7397,2.7408,2.7431,2.7442,2.7471,2.7473,2.7518,2.7519,2.7508,2.7505,2.7513,0,0,0,2.7289,2.7303,2.7314,2.7334,2.7349,2.739,2.7408,2.7439,2.7462,2.7472,2.7518,2.7519,2.7508,2.7505,2.7513,2.7516,2.7516,0,0,2.7298,2.7304,2.7316,2.7328,2.7363,2.7382,2.7415,2.745,2.7467,2.75,2.7501,2.7508,2.7505,2.7513,2.7523,2.7523,0,0,0,2.7314,2.7323,2.7336,2.7358,2.7386,2.741,2.7443,2.7456,2.7486,2.7481,2.7513,2.7512,2.7517,2.7519,2.7519,2.7525,2.7519,2.7519,2.7519,2.7303,2.7325,2.7348,2.7377,2.7398,2.7433,2.7451,2.7475,2.749,2.7497,2.7507,2.7511,2.7513,2.7513,2.7518,2.7511,2.7511,2.7511,2.7511,2.7318,2.7334,2.7355,2.7385,2.7407,2.7432,2.7465,2.7475,2.7501,2.7505,2.751,2.7512,2.7512,2.7518,2.751,2.751,2.751,2.751,2.751,2.7313,2.7325,2.7342,2.7377,2.7402,2.7431,2.7455,2.7474,2.7493,2.7498,2.7511,2.7511,2.7514,2.7503,2.7503,2.7503,2.7503,2.7503,2.7503,2.7302,2.7321,2.734,2.7372,2.739,2.7415,2.745,2.7467,2.7491,2.7503,2.7503,2.7517,2.7509,2.7506,2.7503,2.7503,2.7503,2.7503,2.7503,2.7308,2.731,2.7339,2.7356,2.7396,2.7419,2.7444,2.7478,2.7495,2.7506,2.7519,2.751,2.7517,2.7517,2.7515,2.7515,2.7515,2.7515,2.7515,2.7304,2.731,2.7344,2.7371,2.7399,2.7425,2.7456,2.7484,2.7512,2.7524,2.7527,2.7526,2.7525,2.7532,2.7532,2.753,2.7535,2.7535,2.7535,2.7309,2.7319,2.7342,2.7371,2.7404,2.7431,2.7461,2.7491,2.7523,2.7536,2.7534,2.7533,2.7531,2.753,2.7541,2.7541,2.7538,0,0]}]]